This demonstration page uses our WeatherBlox Daily Observations layout. Learn more.

41.55636, -103.73856

Hourly Observations for May 17, 2016

Temp ( °F °C ) Dew Point ( °F °C ) Humidity (%) Winds ( mph kmh ) Pressure ( in mb ) Visibility ( mi km ) Precip ( " mm )
12:53 am 00:53 Clear 37 2.8 34 1.1 89 89 NNE 6 9 30.25 1024 10 16.0934 0 0
1:53 am 01:53 Clear 36 2.2 33 0.6 89 89 NNE 8 13 30.26 1025 10 16.0934 0 0
2:53 am 02:53 Clear 35 1.7 32 0 89 89 Calm 30.28 1025 10 16.0934 0 0
3:53 am 03:53 Clear 34 1 32 0 93 93 Calm 30.36 1028 10 16.0934 0 0
4:53 am 04:53 Clear 34 1.1 31 -0.6 89 89 Calm 30.31 1026 10 16.0934 0 0
5:53 am 05:53 Sunny 34 1.1 31 -0.6 89 89 NNE 3 6 30.32 1027 10 16.0934 0 0
6:53 am 06:53 Sunny 36 2.2 34 1.1 93 93 Calm 30.34 1027 10 16.0934 0 0
7:20 am 07:20 Partly Cloudy with Mist and Fog 36 2 34 1 93 93 Calm 30.42 1030 1.5 2.41401 0 0
7:24 am 07:24 Mostly Cloudy with Fog 36 2 34 1 93 93 SSW 3 6 30.42 1030 0.25 0.402335 0 0
7:53 am 07:53 Mostly Cloudy with Fog 37 2.8 36 2.2 96 96 Calm 30.36 1028 0.5 0.80467 0 0
8:05 am 08:05 Mostly Cloudy with Mist and Fog 38 3.3 37 2.8 97 97 Calm 30.39 1029 2 3.21868 0 0
8:12 am 08:12 Mostly Cloudy 39 4 37 3 93 93 Calm 30.39 1029 10 16.0934 0 0
8:21 am 08:21 Mostly Sunny 40 4.4 38 3.3 93 93 Calm 30.39 1029 10 16.0934 0 0
8:53 am 08:53 Sunny 45 7.2 39 3.9 80 80 Calm 30.35 1028 10 16.0934 0 0
9:53 am 09:53 Sunny 49 9.4 40 4.4 71 71 SSE 8 13 30.34 1028 10 16.0934 0 0
10:53 am 10:53 Sunny 52 11.1 39 3.9 61 61 SE 8 13 30.34 1027 10 16.0934 0 0
11:53 am 11:53 Mostly Sunny 55 12.8 38 3.3 53 53 ESE 9 15 30.33 1027 10 16.0934 0 0
12:53 pm 12:53 Mostly Sunny 57 13.9 36 2.2 45 45 VRB 7 11 30.32 1027 10 16.0934 0 0
1:53 pm 13:53 Mostly Sunny 59 15 36 2.2 42 42 SE 12 19 30.3 1026 10 16.0934 0 0
2:53 pm 14:53 Partly Cloudy 62 16.7 37 2.8 40 40 ESE 12 19 30.27 1025 10 16.0934 0 0
3:53 pm 15:53 Mostly Sunny 61 16.1 35 1.7 38 38 S 10 17 30.25 1024 10 16.0934 0 0
4:53 pm 16:53 Sunny 61 16.1 36 2.2 39 39 ESE 13 20 30.23 1024 10 16.0934 0 0
5:53 pm 17:53 Mostly Cloudy 59 15 35 1.7 41 41 SE 12 19 30.23 1024 10 16.0934 0 0
6:53 pm 18:53 Mostly Cloudy 57 13.9 35 1.7 44 44 SE 9 15 30.23 1024 10 16.0934 0 0
7:53 pm 19:53 Cloudy 55 12.8 38 3.3 53 53 SSE 7 11 30.25 1024 10 16.0934 0 0
8:53 pm 20:53 Cloudy 53 11.7 39 3.9 59 59 SE 6 9 30.24 1024 10 16.0934 0 0
9:53 pm 21:53 Clear 49 9.4 39 3.9 69 69 SSW 5 7 30.25 1024 10 16.0934 0 0
10:53 pm 22:53 Clear 49 9.4 38 3.3 66 66 Calm 30.24 1024 10 16.0934 0 0
11:53 pm 23:53 Clear 44 6.7 37 2.8 76 76 Calm 30.23 1024 10 16.0934 0 0

Powered by AerisWeather